Monticello, KY

10:30 PM EDT on June 28, 2017 (GMT -0400)
Wayne County

Weather History for KEKQ - February, 2013

Change the Weather History Date:

Sunday, February 24, 2013

  Actual Average Record
Temperature  
Mean Temperature 35 °F -  
Max Temperature 50 °F 51 °F 78 °F (2017)
Min Temperature 20 °F 30 °F 7 °F (1968)
Degree Days  
Heating Degree Days 30    
Moisture  
Dew Point 23 °F    
Average Humidity 73    
Maximum Humidity 100    
Minimum Humidity 33    
Precipitation  
Precipitation 0.00 in - - ()
Sea Level Pressure  
Sea Level Pressure 30.13 in    
Wind  
Wind Speed 1 mph (South)    
Max Wind Speed 10 mph    
Max Gust Speed -    
Visibility 8 miles    
Events      
Averages and records for this station are not official NWS values.
T = Trace of Precipitation, MM = Missing Value Source: NWS Daily Summary

Daily Weather History Graph

Daily Weather History Graph

Search for Another Location

Airport or City:

Trip Planner

Search our weather history database for the weather conditions in past years. The results will help you decide how hot, cold, wet, or windy it might be!

Date:

Astronomy

Feb. 24, 2013 Rise Set
Actual Time 6:16 AM CST 5:29 PM CST
Civil Twilight 5:50 AM CST 5:55 PM CST
Nautical Twilight 5:20 AM CST 6:25 PM CST
Astronomical Twilight 4:50 AM CST 6:55 PM CST
Moon 4:39 PM CST (2/24) 5:12 AM CST (2/24)
Length of Visible Light 12h 04m
Length of Day
11h 12m
Waxing Gibbous, 99% of the Moon is Illuminated
Feb 24
Waxing Gibbous
Feb 25
Full
Mar 4
Last Quarter
Mar 11
New
Mar 19
First Quarter

Hourly Weather History & Observations

Time (CST) Temp. Windchill Dew Point Humidity Pressure Visibility Wind Dir Wind Speed Gust Speed Precip Events Conditions
12:56 AM 26.1 °F - 24.1 °F 92% 30.04 in 10.0 mi Calm Calm - N/A   Clear
1:56 AM 26.1 °F - 23.0 °F 88% 30.04 in 10.0 mi Calm Calm - N/A   Clear
2:56 AM 22.1 °F - 20.1 °F 92% 30.07 in 8.0 mi Calm Calm - N/A   Clear
3:56 AM 20.1 °F - 19.0 °F 96% 30.07 in 7.0 mi Calm Calm - N/A   Clear
4:56 AM 22.1 °F - 21.0 °F 96% 30.10 in 8.0 mi Calm Calm - N/A   Clear
6:56 AM 22.1 °F - 22.1 °F 100% 30.14 in 4.0 mi Calm Calm - N/A   Clear
7:56 AM 30.0 °F - 28.0 °F 92% 30.16 in 5.0 mi Calm Calm - N/A   Clear
8:56 AM 34.0 °F - 28.0 °F 79% 30.17 in 9.0 mi Calm Calm - N/A   Clear
9:56 AM 37.9 °F - 27.1 °F 65% 30.18 in 10.0 mi Calm Calm - N/A   Clear
10:56 AM 43.0 °F 38.8 °F 24.1 °F 47% 30.18 in 10.0 mi SSE 6.9 mph - N/A   Clear
11:56 AM 45.9 °F 40.8 °F 24.1 °F 42% 30.17 in 10.0 mi SSW 10.4 mph - N/A   Clear
12:56 PM 47.8 °F - 23.0 °F 38% 30.14 in 10.0 mi SSE 6.9 mph - N/A   Clear
1:56 PM 48.9 °F - 22.1 °F 35% 30.13 in 10.0 mi SSW 5.8 mph - N/A   Clear
2:56 PM 50.0 °F - 23.0 °F 35% 30.13 in 10.0 mi Variable 3.5 mph - N/A   Clear
3:56 PM 50.0 °F - 22.1 °F 33% 30.12 in 10.0 mi Calm Calm - N/A   Clear
4:56 PM 46.9 °F - 24.1 °F 41% 30.13 in 10.0 mi SW 4.6 mph - N/A   Clear
5:56 PM 34.0 °F - 24.1 °F 67% 30.15 in 10.0 mi Calm Calm - N/A   Clear
6:56 PM 32.0 °F - 25.2 °F 76% 30.17 in 10.0 mi Calm Calm - N/A   Clear
7:56 PM 27.1 °F - 23.0 °F 84% 30.17 in 3.0 mi Calm Calm - N/A   Clear
8:56 PM 26.1 °F - 24.1 °F 92% 30.15 in 5.0 mi Calm Calm - N/A   Clear
9:05 PM 26.6 °F - 23.0 °F 86% 30.11 in 2.5 mi Calm Calm - N/A   Clear
9:26 PM 24.8 °F - 21.2 °F 86% 30.11 in 10.0 mi Calm Calm - N/A   Clear
9:56 PM 25.2 °F - 22.1 °F 88% 30.14 in 10.0 mi Calm Calm - N/A   Clear
10:56 PM 30.0 °F - 24.1 °F 79% 30.13 in 10.0 mi Calm Calm - N/A   Clear
11:56 PM 24.1 °F - 21.0 °F 88% 30.13 in 10.0 mi Calm Calm - N/A   Clear